Airfield :
LOGIN :

Register | Disclaimer

   EN    FR    IT 

 










Legend :    VFR   Marginal VFR   IFR   Intensive IFR   Very Intensive IFR
Visi :
Ceiling :
>= 8 km
>= 3000ft
5 to 8 km
1000 to 3000 ft
1500m to 5 km
500 to 1000 ft
800 to 1500m
200 to 500 ft
< 800m
< 200 ft
Symbols :   Thunderstorms  Fog  Heavy snow  Heavy precipitations  Wind > 20 kt
SIGMETs :     Misc.  Thunderstorms  Icing  Turbulence  Mountain Waves  Volcanic Ashes






- Airport Elevation : 291 ft
- IATA code : ORY


LFPO - Paris-Orly

CURRENT METAR :
  • 252000Z 04002KT CAVOK 08/06 Q1018 NOSIG

EXPIRED METARs :
  • 251930Z VRB01KT CAVOK 08/06 Q1018 NOSIG
  • 251900Z 14002KT CAVOK 08/06 Q1018 NOSIG
  • 251830Z VRB02KT CAVOK 08/06 Q1018 NOSIG
  • 251800Z 00000KT CAVOK 08/06 Q1017 NOSIG
  • 251730Z VRB02KT CAVOK 08/06 Q1017 NOSIG

TAF TAF LFPO
Valid from the 25 at 18:00 until the 27 at 00:00 UTC


251700Z 2518/2624 VRB02KT CAVOK
TEMPO 2521/2601 4000 MIFG
BECMG 2601/2603 3500 BR
PROB40
TEMPO 2601/2610 0800 FG BKN002
PROB30
TEMPO 2605/2609 0400 FG VV///
BECMG 2611/2613 04005KT CAVOK
TEMPO 2621/2624 3500 MIFG
ATIS : +33 1 49 75 65 80



MET'MAP, your aeronautical weather chart ! - Copyright ORBIFLY December 2007 - Disclaimer

ORBIFLY MET'MAP TEAM :

Programming & Development : Alexandra Zaïnal
Concept & original design : Baudouin d'Aumeries
Assistance for programming : Marc-Olivier Méhu
Technical & hardware support : Manuel Goepfert

Contact : metmap@orbifly.com




SOURCES & CREDITS :

   NOAA